星链-4543 (STARLINK-4543 )

导读 | 豆包AI

STARLINK-4543是美国太空探索技术公司Starlink星链星座中的卫星,于2022年8月10日发射升空,属于星链互联网星座组网的组成部分,旨在为全球提供低延迟、高速率的卫星互联网接入服务,依托近地轨道部署,承担全球偏远地区网络覆盖等通信服务任务。

基本信息
目录编号:
53429
目录名称:
STARLINK-4543
国际标识:
2022-097AT
轨道中心:
EARTH
卫星名称:
星链-4543
卫星全名:
星链-4543 (STARLINK-4543 )
卫星状态:
在轨 (已飞行1313 天)
发射日期:
2022-08-10 UTC
国别 :
美国 (US)
星等 :
--
轨道信息
数据来源 国际轨道数据
星历时间: 2026-03-14T17:39:42+0800
20小时前
查看轨道信息
半长轴: 6917.875km
偏心率: 0.0002704
轨道倾角: 53.217°
近地点辐角 143.953°
升交点赤经 83.077°
平近点角 216.165°
近地点: 537.867km
远地点: 541.609km
周期: 95.437分钟
每日圈数: 15.08842
详细信息
固有亮度:
5
最大亮度:
2.5
卫星平台:
Starlink v1.5
覆盖范围:
全球
运营商:
太空探索技术公司
运营商所在国:
美国
制造商(研发单位):
太空探索技术公司
制造商所在国:
美国
使用方式:
暂无
卫星简介
星链(Starlink)计划是由太空探索技术公司(SpaceX)提出的一个巨型低轨卫星互联网星座项目,计划在2019年至2024年间在太空搭建由约1.2万颗卫星组成的“星链”网络,其中1584颗将部署在地球上空550千米处的近地轨道,并从2020年开始工作。该卫星仍在工作。
2D轨道图
3D轨道图
轨道高度分析图
轨道倾角分析图
轨道综合分析图
查看轨道综合分析图